Wind_Speed
11 11 11 12 12 12 13 12 13 12 12 12 12 13 12 12 11 11 11 12 12 12 11 11 10 10 10 10 10 11 11 11 11 12 13 14 14 15 15 16 15 16 16 17
12 12 12 12 13 13 13 13 13 14 13 12 12 12 13 12 12 12 13 13 13 12 12 12 11 11 11 11 11 11 12 12 13 14 15 15 16 16 17 17 17 18 19 19
14 13 13 13 13 13 13 14 14 14 13 13 13 12 13 13 12 12 13 14 13 13 13 12 12 12 11 12 12 12 12 13 14 16 16 16 16 17 17 18 19 20 21 21
14 14 14 12 12 13 14 13 13 13 12 13 13 13 13 13 13 13 13 13 14 14 14 14 13 12 12 13 13 14 14 15 16 17 17 18 18 19 19 21 22 22 23 23
15 15 14 14 13 13 14 14 13 13 13 14 14 14 14 14 13 13 14 14 14 14 14 14 13 13 14 14 14 15 16 17 18 19 19 20 20 21 22 23 24 24 25 25
16 16 15 14 14 14 15 15 14 14 14 14 15 16 15 15 14 14 14 15 15 15 15 14 15 15 15 16 16 16 17 18 20 21 21 22 22 23 24 25 26 26 27 27
17 17 16 15 15 15 16 15 15 16 16 15 16 16 16 16 15 15 15 15 15 15 16 16 16 16 17 17 17 18 19 20 21 21 22 23 23 24 25 26 27 28 29 29
18 19 18 17 17 17 17 16 16 16 16 16 16 17 17 16 16 16 17 17 17 17 18 18 17 18 18 19 19 20 20 21 22 22 23 24 25 26 27 28 29 29 31 32
19 20 19 19 19 19 18 17 16 16 16 16 17 17 17 17 17 17 18 18 18 19 19 19 19 20 20 21 21 22 22 23 23 24 25 26 27 28 29 30 31 32 33 34
21 20 20 20 20 20 20 19 18 18 17 17 17 17 17 17 17 17 18 18 18 19 20 20 20 21 21 22 23 24 24 25 26 27 28 29 30 31 32 33 34 35 35 36
22 21 21 21 21 21 21 20 20 19 19 18 18 17 17 18 18 19 19 19 19 20 20 20 21 22 23 24 25 25 26 27 28 29 30 32 32 33 34 35 36 37 38 39
24 23 23 22 21 21 21 21 20 19 19 19 19 19 19 19 19 19 19 19 20 20 20 21 22 23 24 25 26 27 29 30 31 32 33 34 35 36 37 38 39 39 40 41
26 25 24 23 22 22 22 21 21 20 20 20 20 20 20 20 20 20 20 20 20 21 22 23 24 25 26 27 29 30 31 32 34 35 36 37 38 39 39 40 41 42 42 43
27 26 25 25 24 23 23 22 21 21 21 21 21 21 21 21 21 22 22 22 22 23 24 25 26 28 29 31 32 33 34 35 37 38 39 40 40 40 41 41 42 43 44 45
27 26 26 26 25 24 24 23 23 23 23 23 23 23 23 24 24 24 24 25 26 27 28 29 30 31 32 33 35 36 37 38 39 40 41 41 41 42 42 43 44 45 46 47
27 27 27 27 27 26 26 26 25 25 25 25 25 26 26 26 26 27 27 28 29 30 31 32 33 34 36 37 38 39 39 40 41 41 41 42 43 43 44 45 46 47 47 48
29 28 28 29 28 28 27 27 28 28 27 27 27 28 28 28 28 29 30 31 32 33 34 35 36 37 38 39 40 41 41 41 42 42 43 43 44 45 46 47 47 48 48 49
30 30 29 30 30 30 30 30 30 30 30 30 30 30 30 31 31 32 32 34 35 36 37 38 39 40 40 41 41 42 43 43 43 43 44 45 45 46 47 48 48 49 50 50
31 30 30 30 31 31 31 32 32 32 32 32 32 32 33 33 34 34 35 37 37 38 39 39 40 41 41 42 42 42 43 43 44 44 45 45 46 47 48 49 50 50 51 52
31 31 31 31 32 32 32 33 33 33 33 34 34 34 35 36 36 37 38 38 39 39 40 40 41 41 42 42 42 43 43 44 45 45 46 46 47 48 49 49 50 51 52 52
32 32 32 32 32 32 33 33 34 34 34 35 35 36 37 37 38 38 39 39 39 40 40 41 41 42 42 43 43 44 45 45 45 46 47 47 48 49 50 50 51 51 52 52
32 33 33 33 33 33 33 34 34 35 36 36 37 37 38 38 39 39 39 39 39 40 41 41 42 43 43 44 44 45 45 45 46 46 47 47 48 49 49 50 50 51 51 51
33 33 33 33 34 34 35 35 36 36 36 37 37 38 38 38 39 39 39 40 40 41 42 43 43 44 44 44 44 45 45 45 46 47 47 47 48 48 49 49 50 50 50 50
34 34 34 34 35 35 36 36 36 36 37 37 38 38 38 38 38 39 40 41 42 43 43 43 43 44 44 44 43 44 44 45 46 46 47 48 48 49 49 49 49 49 49 49
34 34 34 34 35 35 36 36 37 37 37 37 37 37 38 38 39 40 41 42 42 43 43 43 44 44 44 44 44 45 46 46 47 47 47 48 48 49 49 49 49 49 49 49
34 34 34 35 35 35 36 36 36 36 37 37 37 37 38 39 40 41 41 42 42 43 43 43 43 44 44 45 45 45 46 47 47 47 47 48 49 49 49 49 49 49 49 48
35 34 35 35 35 35 36 36 36 36 36 37 37 38 39 40 41 41 42 42 42 42 43 43 44 44 45 45 45 45 46 47 47 48 48 47 48 48 48 48 47 47 47 47
Wind_Direction
237 241 238 237 235 233 233 240 242 240 243 243 243 241 239 237 237 237 239 240 241 242 244 245 250 254 256 262 268 272 274 277 283 286 287 288 289 292 295 298 300 302 304 306
237 243 241 238 236 240 241 243 248 248 241 241 239 237 239 241 242 243 244 244 245 247 249 250 254 256 258 263 268 274 277 281 285 289 290 290 291 292 294 297 300 302 303 305
239 241 242 242 240 240 243 245 249 245 241 237 235 237 239 243 244 246 247 248 248 252 253 251 255 259 262 265 270 274 279 284 287 289 291 290 291 293 294 297 299 301 302 303
237 237 243 244 243 246 248 248 252 249 245 242 238 240 242 244 246 249 248 249 250 252 255 258 259 261 264 269 272 276 279 282 288 289 289 290 291 292 294 296 298 300 301 302
235 239 244 244 247 249 250 250 252 249 249 246 241 242 244 245 246 250 251 252 254 257 259 259 259 263 267 272 276 280 283 285 289 290 289 290 291 291 293 295 296 298 299 300
237 243 247 249 251 250 250 250 249 249 250 250 244 244 246 247 247 249 252 253 256 258 259 261 263 266 271 276 279 283 286 289 291 292 292 291 291 292 294 295 296 297 298 298
239 243 246 249 252 252 251 251 249 249 250 250 247 246 249 250 250 252 254 256 258 259 260 263 266 269 274 279 282 286 288 290 292 294 294 293 293 294 295 296 297 297 298 299
243 244 247 251 251 251 252 252 253 254 253 251 249 249 251 252 253 253 255 256 258 260 264 266 269 272 276 280 283 285 288 290 292 293 294 295 295 295 296 297 298 298 299 300
246 248 249 250 251 251 252 254 255 256 254 252 250 250 251 254 256 257 257 259 261 263 267 270 272 275 278 280 283 286 288 290 292 293 294 295 295 296 297 298 298 299 300 300
246 247 250 252 252 251 251 253 254 255 255 254 255 254 254 255 258 260 261 262 264 266 270 272 274 277 280 283 286 287 289 291 292 294 294 296 296 297 297 298 299 299 300 301
247 248 249 249 249 250 251 252 253 255 256 255 255 256 258 261 263 265 264 264 266 268 270 271 274 278 281 285 287 288 291 292 293 294 294 295 296 296 297 298 299 299 300 301
247 247 248 248 248 249 251 251 251 253 255 255 255 256 259 261 262 263 263 265 268 270 271 274 277 281 283 286 287 289 290 292 293 294 295 296 297 297 297 298 299 299 299 300
248 247 248 249 249 249 249 249 251 252 254 255 256 257 259 261 261 263 265 267 270 272 275 278 280 282 285 287 288 290 291 292 293 294 294 295 296 296 296 297 298 298 299 300
248 248 248 248 248 248 248 247 249 251 254 256 258 259 260 261 263 265 267 270 272 274 277 279 281 283 285 287 289 290 291 292 293 294 294 295 295 295 296 297 298 299 299 300
247 248 248 248 248 249 249 250 251 253 256 258 259 260 262 263 265 267 269 271 272 274 277 280 282 284 286 288 289 290 291 293 293 294 294 295 295 295 296 297 298 299 299 300
249 248 248 248 248 249 251 252 254 256 258 259 260 261 263 265 266 268 270 272 274 276 278 281 283 285 287 289 290 291 292 293 294 295 295 295 295 296 297 298 299 299 300 300
250 251 250 249 250 251 253 254 256 257 259 261 261 262 263 265 267 269 272 274 275 277 280 282 284 286 287 288 290 291 293 294 294 294 295 295 296 297 298 299 299 300 300 301
251 252 252 251 250 251 253 255 257 259 261 262 262 262 263 265 267 270 273 275 277 279 281 283 284 286 287 289 291 292 293 294 294 294 295 295 296 297 298 299 300 301 302 302
253 253 253 253 253 254 255 257 258 260 262 262 263 262 264 266 268 271 274 276 278 280 282 283 285 286 288 290 291 292 293 294 294 295 295 296 297 298 299 300 300 301 302 303
253 253 254 255 255 256 257 258 259 261 262 263 264 264 265 267 270 272 274 277 278 280 282 283 285 287 288 290 291 292 293 294 295 296 296 297 298 299 300 301 301 302 302 303
254 255 255 256 257 258 259 260 261 263 264 266 267 267 267 269 271 273 275 277 279 280 282 284 286 287 288 289 291 292 293 294 295 296 296 297 298 299 300 301 302 303 303 304
254 255 256 256 258 259 260 261 262 264 266 267 268 269 270 271 272 274 275 276 278 280 282 284 286 288 289 289 290 292 293 294 295 296 297 298 299 300 301 302 302 303 304 304
255 256 257 258 259 261 262 263 264 266 267 268 269 270 271 272 274 275 276 277 278 281 283 285 287 288 290 290 290 291 293 295 296 297 298 299 300 301 302 302 303 304 304 304
257 258 259 260 261 262 263 264 265 267 268 269 270 271 272 273 274 275 276 277 279 281 284 286 287 288 288 289 290 291 293 295 296 298 299 300 300 301 301 302 303 304 305 304
259 259 260 262 263 263 263 264 265 267 268 270 271 272 273 273 274 276 278 279 282 283 285 286 286 287 288 289 290 292 293 295 296 298 299 300 301 301 302 303 303 304 304 304
259 260 261 262 263 264 265 265 266 268 269 270 272 273 274 275 276 277 278 279 281 283 284 286 287 287 289 290 291 292 294 295 296 298 299 300 301 301 302 303 303 304 305 305
259 261 262 264 265 266 266 266 267 268 269 271 273 274 275 276 277 278 279 280 281 283 284 286 287 288 290 291 292 294 295 297 298 299 300 300 301 302 303 304 304 305 305 305
Height
5825 5826 5828 5829 5831 5832 5833 5835 5836 5837 5837 5839 5840 5841 5842 5843 5845 5846 5848 5849 5851 5852 5853 5854 5855 5856 5856 5857 5857 5858 5858 5858 5858 5858 5857 5857 5857 5857 5856 5855 5854 5853 5852 5851
5824 5825 5826 5827 5829 5830 5831 5832 5833 5834 5835 5836 5837 5839 5840 5841 5843 5844 5846 5847 5848 5849 5850 5851 5852 5853 5854 5854 5854 5855 5855 5855 5855 5854 5854 5853 5853 5852 5852 5851 5850 5849 5848 5847
5821 5823 5824 5826 5827 5828 5829 5830 5831 5832 5834 5834 5835 5836 5838 5839 5840 5842 5843 5844 5845 5847 5848 5849 5849 5850 5850 5851 5851 5851 5851 5851 5851 5850 5849 5849 5848 5848 5848 5847 5846 5845 5843 5842
5818 5821 5821 5825 5824 5825 5826 5827 5828 5829 5830 5832 5833 5834 5835 5836 5838 5839 5840 5841 5843 5844 5845 5845 5846 5847 5847 5847 5848 5848 5847 5847 5846 5845 5845 5844 5844 5843 5843 5842 5841 5839 5838 5836
5815 5816 5818 5821 5821 5822 5823 5824 5826 5827 5828 5829 5830 5831 5833 5834 5835 5837 5837 5838 5840 5840 5841 5842 5842 5843 5844 5844 5844 5844 5843 5843 5842 5841 5840 5839 5839 5838 5837 5836 5835 5834 5832 5830
5812 5813 5815 5818 5818 5819 5821 5821 5823 5823 5824 5826 5827 5829 5830 5831 5832 5833 5834 5835 5836 5837 5838 5838 5839 5839 5840 5840 5840 5840 5839 5838 5837 5836 5835 5834 5833 5832 5831 5830 5829 5827 5825 5823
5808 5809 5811 5813 5814 5816 5818 5819 5819 5820 5821 5822 5823 5825 5827 5827 5829 5830 5831 5832 5833 5834 5834 5835 5835 5836 5836 5836 5836 5835 5834 5833 5832 5831 5830 5829 5828 5826 5825 5824 5822 5820 5818 5816
5804 5805 5809 5809 5810 5812 5813 5814 5815 5816 5817 5819 5820 5820 5822 5823 5825 5826 5827 5828 5829 5830 5830 5831 5831 5832 5831 5831 5831 5830 5829 5828 5827 5826 5825 5823 5822 5820 5818 5817 5815 5813 5811 5808
5800 5803 5803 5804 5805 5807 5808 5810 5811 5812 5813 5814 5816 5817 5819 5820 5821 5822 5823 5824 5824 5825 5826 5826 5826 5826 5826 5826 5825 5825 5824 5823 5821 5820 5819 5817 5815 5813 5811 5809 5807 5804 5802 5799
5794 5796 5797 5799 5800 5802 5803 5805 5806 5808 5809 5810 5812 5813 5814 5815 5816 5817 5818 5819 5820 5820 5821 5821 5821 5821 5821 5820 5819 5819 5818 5816 5815 5814 5812 5810 5808 5805 5803 5801 5798 5795 5793 5790
5789 5791 5792 5794 5795 5797 5798 5800 5801 5803 5804 5806 5807 5808 5810 5811 5811 5812 5813 5814 5814 5815 5815 5816 5815 5815 5815 5814 5813 5811 5810 5809 5808 5806 5804 5802 5799 5797 5794 5792 5788 5786 5782 5779
5783 5785 5787 5789 5790 5792 5793 5795 5796 5798 5800 5801 5802 5803 5804 5805 5806 5807 5808 5808 5809 5809 5809 5809 5809 5809 5808 5807 5806 5804 5803 5801 5799 5797 5795 5793 5790 5788 5785 5782 5778 5775 5771 5767
5776 5779 5781 5783 5784 5786 5788 5789 5791 5792 5794 5795 5797 5798 5799 5799 5800 5801 5802 5802 5803 5803 5803 5803 5803 5802 5801 5800 5798 5796 5794 5793 5790 5788 5786 5783 5780 5777 5775 5772 5768 5764 5760 5756
5770 5772 5774 5776 5778 5780 5782 5783 5785 5787 5788 5789 5791 5792 5793 5793 5794 5795 5796 5796 5796 5796 5796 5796 5795 5794 5793 5791 5789 5787 5785 5783 5781 5778 5775 5772 5769 5766 5763 5759 5756 5752 5748 5743
5763 5765 5767 5769 5772 5773 5775 5777 5779 5780 5782 5783 5784 5785 5786 5787 5788 5788 5789 5789 5789 5789 5788 5788 5787 5786 5784 5782 5780 5778 5775 5773 5770 5767 5764 5761 5757 5754 5751 5747 5743 5739 5735 5731
5756 5758 5760 5762 5764 5766 5768 5770 5772 5774 5775 5776 5777 5778 5779 5780 5780 5781 5781 5781 5781 5781 5780 5779 5778 5776 5775 5772 5770 5767 5764 5762 5759 5755 5752 5749 5745 5742 5738 5734 5730 5726 5721 5717
5748 5750 5752 5754 5757 5759 5761 5763 5764 5766 5767 5768 5769 5770 5771 5771 5772 5772 5772 5772 5772 5771 5770 5769 5767 5766 5764 5762 5759 5756 5753 5750 5747 5744 5740 5737 5733 5729 5725 5721 5717 5712 5708 5703
5740 5742 5744 5746 5748 5750 5752 5754 5755 5757 5758 5759 5760 5761 5762 5762 5763 5763 5763 5762 5762 5761 5760 5758 5756 5755 5752 5750 5747 5745 5742 5738 5735 5732 5728 5724 5721 5717 5712 5708 5703 5699 5694 5689
5732 5734 5736 5737 5739 5741 5743 5745 5746 5747 5749 5750 5751 5752 5752 5753 5753 5753 5752 5752 5751 5750 5748 5747 5745 5743 5740 5738 5735 5732 5729 5726 5723 5719 5715 5711 5707 5703 5699 5694 5689 5685 5680 5675
5723 5725 5727 5728 5730 5732 5734 5735 5736 5738 5739 5740 5740 5741 5742 5742 5742 5742 5741 5740 5739 5738 5736 5735 5733 5731 5728 5726 5723 5720 5717 5713 5710 5706 5702 5698 5694 5690 5685 5680 5675 5670 5665 5660
5714 5716 5717 5719 5721 5722 5724 5725 5727 5728 5729 5729 5730 5730 5730 5730 5730 5730 5729 5729 5728 5726 5725 5723 5720 5718 5716 5713 5710 5707 5704 5700 5697 5693 5689 5685 5680 5676 5671 5666 5661 5656 5651 5645
5704 5706 5708 5709 5711 5713 5714 5715 5716 5717 5717 5718 5719 5719 5719 5719 5719 5718 5717 5717 5715 5714 5712 5710 5708 5706 5703 5701 5698 5694 5691 5687 5683 5679 5675 5671 5667 5662 5657 5652 5647 5642 5636 5631
5695 5696 5698 5700 5701 5702 5703 5704 5705 5706 5706 5707 5707 5707 5707 5707 5707 5706 5706 5705 5703 5702 5700 5698 5696 5693 5690 5687 5684 5681 5678 5674 5670 5666 5662 5658 5653 5649 5644 5639 5634 5628 5622 5617
5685 5686 5688 5689 5690 5692 5693 5694 5694 5695 5695 5695 5695 5695 5695 5695 5695 5694 5693 5692 5691 5689 5687 5685 5683 5680 5677 5674 5671 5668 5665 5661 5657 5653 5649 5645 5640 5635 5631 5625 5620 5615 5609 5603
5675 5676 5677 5679 5680 5681 5681 5682 5683 5683 5684 5684 5684 5684 5683 5683 5683 5682 5681 5679 5678 5677 5674 5672 5669 5667 5664 5661 5659 5655 5652 5648 5644 5640 5636 5631 5627 5622 5617 5612 5607 5601 5596 5590
5664 5666 5667 5668 5669 5669 5670 5671 5671 5672 5672 5672 5672 5672 5672 5671 5670 5669 5668 5666 5665 5663 5661 5659 5657 5654 5651 5649 5645 5642 5639 5635 5631 5627 5623 5618 5614 5609 5604 5598 5593 5588 5582 5576
5654 5655 5656 5657 5658 5658 5659 5659 5660 5660 5661 5661 5661 5660 5660 5659 5658 5656 5655 5653 5652 5650 5648 5646 5644 5642 5639 5636 5633 5629 5626 5622 5618 5614 5610 5605 5601 5596 5591 5585 5580 5574 5569 5563